This demonstration page uses our WeatherBlox Daily Observations layout. Learn more.

Left ArrowRight Arrow

Hourly Observations for November 27, 2019

Temp ( °F °C ) Dew Point ( °F °C ) Humidity (%) Winds ( mph kmh ) Pressure ( in mb ) Visibility ( mi km ) Precip ( " mm )
12:19 am 00:19 Mostly Cloudy 27 -3 N/A N/A NW 22 35 29.92 1013 10 16 0.00 0.00
12:26 am 00:26 Partly Cloudy 27 -3 N/A N/A NW 23 37 29.92 1013 10 16 0.00 0.00
12:53 am 00:53 Partly Cloudy 27 -3 N/A N/A NW 23 37 29.90 1013 10 16 0.00 0.00
1:01 am 01:01 Mostly Cloudy 27 -3 N/A N/A NW 22 35 29.96 1015 10 16 0.00 0.00
1:12 am 01:12 Partly Cloudy 25 -4 N/A N/A NW 21 33 29.99 1015 10 16 0.00 0.00
1:53 am 01:53 Clear 27 -3 N/A N/A NW 21 33 29.95 1014 10 16 0.00 0.00
2:53 am 02:53 Clear with Light Snow 25 -4 N/A N/A WNW 15 24 30.01 1016 9 14 0.00 0.00
3:43 am 03:43 Cloudy with Light Snow 28 -2 N/A N/A NW 15 24 30.06 1018 9 14 0.00 0.00
3:53 am 03:53 Cloudy with Light Snow 28 -2 N/A N/A NW 15 24 30.04 1017 9 14 0.00 0.00
4:40 am 04:40 Cloudy 28 -2 23 -5 80 80 NW 18 30 30.12 1020 9 14 0.00 0.00
4:53 am 04:53 Cloudy 29 -1.7 22 -5.6 75 75 NW 20 31 30.09 1019 10 16 0.00 0.00
5:04 am 05:04 Cloudy 30 -1.1 22 -5.6 72 72 NW 21 33 30.13 1020 10 16 0.00 0.00
5:53 am 05:53 Cloudy 29 -1.7 21 -6.1 72 72 NNW 13 20 30.11 1020 10 16 0.00 0.00
6:53 am 06:53 Cloudy with Light Snow 26 -3.3 20 -6.7 78 78 WNW 12 19 30.14 1021 10 16 0.00 0.00
7:04 am 07:04 Mostly Cloudy 25 -4 19 -7 80 80 WNW 10 17 30.20 1023 10 16 0.00 0.00
7:53 am 07:53 Partly Cloudy with Isolated Snow Showers 21 -6 N/A N/A WNW 10 17 30.20 1023 10 16 0.00 0.00
8:53 am 08:53 Sunny 21 -6 N/A N/A NW 10 17 30.24 1024 10 16 0.00 0.00
9:53 am 09:53 Sunny 24 -4.4 17 -8.3 75 75 NW 12 19 30.29 1026 10 16 0.00 0.00
10:53 am 10:53 Sunny 26 -3.3 19 -7.2 75 75 NW 12 19 30.32 1027 10 16 0.00 0.00
11:53 am 11:53 Sunny 29 -1.7 20 -6.7 69 69 NNW 14 22 30.32 1027 10 16 0.00 0.00
12:53 pm 12:53 Sunny 29 -1.7 20 -6.7 69 69 N 13 20 30.31 1027 10 16 0.00 0.00
1:53 pm 13:53 Sunny 30 -1.1 19 -7.2 64 64 N 9 15 30.32 1027 10 16 0.00 0.00
2:53 pm 14:53 Sunny 29 -1.7 19 -7.2 66 66 WNW 7 11 30.36 1028 10 16 0.00 0.00
3:53 pm 15:53 Sunny 27 -2.8 19 -7.2 72 72 Calm 30.39 1029 10 16 0.00 0.00
4:53 pm 16:53 Sunny 22 -5.6 17 -8.3 82 82 NNW 5 7 30.38 1029 10 16 0.00 0.00
5:53 pm 17:53 Clear 20 -6.7 16 -8.9 85 85 Calm 30.41 1030 10 16 0.00 0.00
6:53 pm 18:53 Clear 20 -6.7 15 -9.4 81 81 Calm 30.42 1030 10 16 0.00 0.00
7:53 pm 19:53 Clear 16 -8.9 13 -10.6 88 88 WNW 3 6 30.46 1032 10 16 0.00 0.00
8:53 pm 20:53 Clear 16 -8.9 13 -10.6 88 88 Calm 30.46 1031 10 16 0.00 0.00
9:53 pm 21:53 Clear 17 -8.3 13 -10.6 84 84 Calm 30.48 1032 10 16 0.00 0.00
10:53 pm 22:53 Clear 16 -8.9 12 -11.1 84 84 ENE 3 6 30.47 1032 10 16 0.00 0.00
11:53 pm 23:53 Clear 21 -6.1 17 -8.3 85 85 E 3 6 30.45 1031 10 16 0.00 0.00

Powered by AerisWeather